Weather History for EGQK - November, 2012

Change the Weather History Date:

Sunday, November 25, 2012

  Actual Average Record
Temperature  
Mean Temperature 37 °F -  
Max Temperature 42 °F 44 °F 57 °F (2001)
Min Temperature 32 °F 34 °F 27 °F (2013)
Degree Days  
Heating Degree Days 28    
Moisture  
Dew Point 36 °F    
Average Humidity 89    
Maximum Humidity 93    
Minimum Humidity 81    
Precipitation  
Precipitation 0.12 in 0.07 in - ()
Sea Level Pressure  
Sea Level Pressure 29.61 in    
Wind  
Wind Speed 5 mph ()    
Max Wind Speed 14 mph    
Max Gust Speed -    
Visibility 6.9 miles    
Events Rain    
Averages and records for this station are not official NWS values.
T = Trace of Precipitation, MM = Missing Value Source: Averaged Metar Reports

Daily Weather History Graph

Daily Weather History Graph

Search for Another Location

Airport or City:

Trip Planner

Search our weather history database for the weather conditions in past years. The results will help you decide how hot, cold, wet, or windy it might be!

Date:

Astronomy

Nov. 25, 2012 Rise Set
Actual Time 8:20 AM GMT 3:41 PM GMT
Civil Twilight 7:33 AM GMT 4:28 PM GMT
Nautical Twilight 6:43 AM GMT 5:18 PM GMT
Astronomical Twilight 5:57 AM GMT 6:04 PM GMT
Moon 2:15 PM GMT (11/25) 4:52 AM GMT (11/25)
Length of Visible Light 8h 55m
Length of Day
7h 20m
Waxing Gibbous, 91% of the Moon is Illuminated
Nov 25
Waxing Gibbous
Nov 28
Full
Dec 6
Last Quarter
Dec 13
New
Dec 20
First Quarter

Hourly Weather History & Observations

Time (GMT) Temp. Windchill Dew Point Humidity Pressure Visibility Wind Dir Wind Speed Gust Speed Precip Events Conditions
12:50 AM 32.0 °F 28.7 °F 28.4 °F 87% 29.68 in 6.2 mi ENE 3.5 mph - N/A   Overcast
1:50 AM 33.8 °F - 28.4 °F 81% 29.65 in 6.2 mi South 2.3 mph - N/A   Overcast
2:50 AM 34 °F - 31 °F 82% 29.65 in 5 mi SW 1.2 mph - - Rain Rain Showers
2:50 AM 33.8 °F - 30.2 °F 87% 29.62 in 5.0 mi SW 1.2 mph - N/A Rain Rain Showers
3:50 AM 33.8 °F - 32.0 °F 93% 29.59 in 6.2 mi SW 1.2 mph - N/A   Scattered Clouds
4:50 AM 33.8 °F - 32.0 °F 93% 29.59 in 6.2 mi WSW 1.2 mph - N/A   Mostly Cloudy
5:50 AM 34 °F - 32 °F 90% 29.59 in 9 mi SW 3.5 mph - - Rain Light Rain Showers
5:50 AM 33.8 °F 30.8 °F 32.0 °F 93% 29.56 in 6.2 mi SW 3.5 mph - N/A Rain Light Rain Showers
6:50 AM 35.6 °F 32.8 °F 32.0 °F 87% 29.56 in 6.2 mi WSW 3.5 mph - N/A Rain Light Rain
7:50 AM 35.6 °F 30.7 °F 33.8 °F 93% 29.56 in 5.0 mi SW 5.8 mph - N/A   Drizzle
8:50 AM 37 °F - 35 °F 91% 29.58 in 6 mi WSW 5.8 mph - - Rain Rain
8:50 AM 37.4 °F 32.8 °F 35.6 °F 93% 29.56 in 5.6 mi WSW 5.8 mph - N/A Rain Rain
9:50 AM 37.4 °F 32.1 °F 35.6 °F 93% 29.56 in 5.6 mi SW 6.9 mph - N/A   Light Drizzle
10:50 AM 37.4 °F 30.8 °F 35.6 °F 93% 29.56 in 5.6 mi SW 9.2 mph - N/A   Light Drizzle
11:50 AM 38 °F - 36 °F 92% 29.57 in 6 mi WSW 9.2 mph - - Rain Light Drizzle
11:50 AM 39.2 °F 33.0 °F 37.4 °F 93% 29.56 in 6.2 mi WSW 9.2 mph - N/A   Light Drizzle
12:50 PM 39.2 °F 33.0 °F 37.4 °F 93% 29.56 in 4.3 mi SW 9.2 mph - N/A Rain Light Rain
1:50 PM 41.0 °F 35.2 °F 39.2 °F 93% 29.56 in 6.2 mi West 9.2 mph - N/A Rain Rain
2:50 PM 42 °F - 40 °F 88% 29.58 in 19 mi West 4.6 mph - - Rain Light Rain
2:50 PM 41.0 °F 38.0 °F 39.2 °F 93% 29.56 in 6.2 mi West 4.6 mph - N/A Rain Light Rain
3:50 PM 41.0 °F 34.3 °F 39.2 °F 93% 29.59 in 6.2 mi WNW 11.5 mph - N/A Rain Light Rain
4:50 PM 42.8 °F 36.6 °F 39.2 °F 87% 29.59 in 6.2 mi North 11.5 mph - N/A Rain Light Rain
5:50 PM 42 °F - 40 °F 88% 29.62 in 12 mi NW 10.4 mph - - Rain Light Rain
5:50 PM 42.8 °F 37.0 °F 39.2 °F 87% 29.62 in 6.2 mi NW 10.4 mph - N/A Rain Light Rain
6:50 PM 42.8 °F 36.6 °F 39.2 °F 87% 29.62 in 6.2 mi NW 11.5 mph - N/A   Mostly Cloudy
7:50 PM 42.8 °F 36.2 °F 39.2 °F 87% 29.62 in 6.2 mi NW 12.7 mph - N/A   Scattered Clouds
8:50 PM 42 °F - 39 °F 85% 29.66 in 25 mi NW 11.5 mph - -   Mostly Cloudy
8:50 PM 42.8 °F 36.6 °F 39.2 °F 87% 29.65 in 6.2 mi NW 11.5 mph - N/A   Mostly Cloudy
9:50 PM 42.8 °F 36.2 °F 39.2 °F 87% 29.65 in 6.2 mi NW 12.7 mph - N/A   Mostly Cloudy
10:50 PM 42.8 °F 35.8 °F 39.2 °F 87% 29.68 in 3.7 mi NW 13.8 mph - N/A   Light Drizzle
11:50 PM 42 °F - 39 °F 85% 29.69 in 17 mi NW 11.5 mph - - Rain Rain
11:50 PM 42.8 °F 36.6 °F 39.2 °F 87% 29.68 in 6.2 mi NW 11.5 mph - N/A   Mostly Cloudy